Location: Zagreb
(45.8000°N, 16.0000°E)
Time: 19:52:43
(UTC+02:00)

ISS - Visible Passes

Search period start: 24 September 2021 00:00
Search period end: 04 October 2021 00:00
Orbit: 419 x 423 km, 51.6° (Epoch: 24 September)

Date Brightness Start Highest point End Pass type
(mag) Time Alt. Az. Time Alt. Az. Time Alt. Az.
24 Sep -2.6 19:25:26 10° W 19:28:37 38° NNW 19:31:48 10° NE visible
24 Sep -2.0 21:02:59 10° WNW 21:05:32 28° NNW 21:05:32 28° NNW visible
25 Sep -2.2 20:15:57 10° WNW 20:18:57 29° N 20:20:21 21° NE visible
25 Sep -0.3 21:52:59 10° WNW 21:53:21 12° NW 21:53:21 12° NW visible
26 Sep -2.2 19:28:52 10° WNW 19:31:53 29° N 19:34:55 10° ENE visible
26 Sep -1.9 21:06:05 10° NW 21:08:10 29° NNW 21:08:10 29° NNW visible
27 Sep -2.6 20:19:09 10° NW 20:22:15 33° N 20:22:59 29° NE visible
27 Sep -0.1 21:55:58 10° WNW 21:55:58 10° WNW 21:55:58 10° WNW visible
28 Sep -2.4 19:32:09 10° WNW 19:35:11 30° N 19:37:48 12° ENE visible
28 Sep -1.7 21:09:03 10° WNW 21:10:48 28° NW 21:10:48 28° NW visible
29 Sep -3.4 20:22:08 10° WNW 20:25:26 50° NNE 20:25:39 49° NE visible
30 Sep -2.9 19:35:13 10° NW 19:38:25 39° NNE 19:40:32 18° ENE visible
30 Sep -1.3 21:12:04 10° WNW 21:13:31 23° WNW 21:13:31 23° WNW visible
01 Oct -3.8 20:25:05 10° WNW 20:28:27 79° SSW 20:28:27 79° SSW visible
02 Oct -3.7 19:38:08 10° WNW 19:41:31 72° NNE 19:43:27 23° ESE visible
02 Oct -0.8 21:15:31 10° W 21:16:27 15° W 21:16:27 15° W visible
03 Oct -2.4 20:28:14 10° WNW 20:31:16 31° SW 20:31:31 31° SSW visible
